#timestamp,LO_Frequency,Hit,StdDev 
1511424015.3,286047003.9,N
1511424035.2,286047003.4,N
1511424055.0,286047001.9,N
1511424055.9,286047001.9,N
1511424075.8,286047001.5,N
1511424095.6,286047001.5,N
1511424115.4,286047000.0,N
1511424135.3,286047000.8,N
1511424155.1,286047001.0,N
1511424175.8,286047001.3,N
1511424195.7,286047001.5,N
1511424215.5,286047000.6,N
1511424235.4,286046998.3,N
1511424255.2,286047001.2,N
1511424275.0,286047000.0,N
1511424275.9,286047000.0,N
1511424295.8,286047000.1,N
1511424315.6,286047002.4,N
1511424335.5,286047002.3,N
1511424355.3,286047000.9,N
1511424375.1,286047001.1,N
1511424395.9,286047001.2,N
1511424415.7,286047000.4,N
1511424435.5,286047002.1,N
1511424455.4,286047000.2,N
1511424475.2,286047002.4,N
1511424495.1,286047000.2,N
1511424496.0,286047000.2,N
1511424515.8,286047002.0,N
1511424535.6,286047001.7,N
1511424555.5,286047002.0,N
1511424575.3,286047001.8,N
1511424595.1,286047003.9,Y
1511424615.9,286047001.4,P
1511424635.7,286047000.0,N
1511424655.6,286047001.1,N
1511424675.4,286047000.9,N
1511424695.2,286047000.7,N
1511424715.1,286046998.5,Y
1511424716.0,286046998.5,P
1511424735.8,286046998.7,N
1511424755.7,286047000.8,N
1511424775.5,286047000.7,N
1511424795.3,286047000.8,N
1511424815.2,286047000.5,N
1511424835.0,286047001.0,N
1511424835.9,286047001.0,N
1511424855.8,286046998.7,N
1511424875.6,286046998.2,N
1511424895.4,286046996.7,N
1511424915.3,286046998.4,N
1511424935.1,286047000.7,N
1511424955.9,286047002.2,N
1511424975.7,286047001.9,N
1511424995.5,286047002.2,N
1511425015.4,286047000.2,N
1511425035.2,286046999.9,N
1511425055.0,286047002.2,N
1511425055.9,286047002.2,N
1511425075.8,286047004.0,N
1511425095.6,286047001.8,N
1511425115.5,286047002.7,N
1511425135.3,286046998.6,N
1511425155.1,286046997.1,N
1511425175.9,286046997.7,N
1511425195.7,286046997.8,N
1511425215.5,286046996.8,N
1511425235.4,286046999.6,N
1511425255.2,286047001.2,N
1511425275.1,286046996.9,N
1511425276.0,286046996.9,N
1511425295.8,286046998.7,N
1511425315.6,286047000.1,N
1511425335.5,286046998.7,N
1511425355.3,286046996.8,N
1511425375.2,286046999.0,N
1511425395.9,286046998.2,N
1511425415.7,286046998.1,N
1511425435.6,286047000.6,N
1511425455.4,286047000.6,N
1511425475.3,286046998.8,N
1511425495.1,286046999.5,N
1511425496.0,286046999.5,N
1511425515.8,286046997.0,N
1511425535.7,286046999.1,N
1511425555.5,286046998.5,N
1511425575.3,286047001.2,N
1511425595.2,286046998.5,N
1511425615.0,286046999.0,N
1511425615.9,286046999.0,N
1511425635.8,286046999.4,N
1511425655.6,286046997.7,N
1511425675.4,286046998.2,N
1511425695.3,286046999.0,N
1511425715.1,286046998.8,N
1511425735.8,286046998.2,N
1511425755.7,286047002.3,N
1511425775.5,286047002.1,N
1511425795.4,286047000.8,N
1511425815.2,286046999.8,N
1511425835.0,286046998.4,N
1511425835.9,286046998.4,N
1511425855.8,286046999.1,N
1511425875.6,286046996.5,N
1511425895.4,286046999.1,N
1511425915.3,286047000.7,N
1511425935.1,286046998.2,N
1511425955.9,286046998.0,N
1511425975.7,286046994.9,Y
1511425995.5,286046998.4,P
1511426015.4,286046999.7,N
1511426035.2,286047002.0,P
1511426055.1,286047003.9,N
1511426056.0,286047003.9,N
1511426075.8,286047004.0,N
1511426095.6,286047004.1,N
1511426115.5,286047003.6,N
1511426135.3,286047002.4,N
1511426155.1,286047001.4,N
1511426175.9,286047001.7,N
1511426195.7,286047003.7,N
1511426215.6,286047001.7,N
1511426235.4,286047002.6,N
1511426255.2,286047000.1,N
1511426275.1,286047002.5,N
1511426276.0,286047002.5,N
1511426295.8,286047001.9,N
1511426315.7,286047001.4,N
1511426335.5,286047004.1,N
1511426355.3,286047002.8,N
1511426375.2,286047000.7,N
1511426395.0,286047002.8,N
1511426395.9,286047002.8,N
1511426415.8,286047002.3,N
1511426435.6,286047002.5,N
1511426455.4,286047002.2,N
1511426475.3,286047001.6,N
1511426495.1,286047002.6,N
1511426515.8,286047002.4,N
1511426535.7,286047000.6,N
1511426555.5,286047000.8,N
1511426575.4,286047000.5,N
1511426595.2,286046999.9,N
1511426615.0,286047000.4,N
1511426615.9,286047000.4,N
1511426635.8,286047000.1,N
1511426655.6,286047000.6,N
1511426675.4,286047000.6,N
1511426695.3,286046998.2,N
1511426715.1,286046999.7,N
1511426735.9,286046999.8,N
1511426755.7,286047002.3,N
1511426775.5,286047002.6,N
1511426795.4,286047002.6,N
1511426815.2,286047001.8,N
1511426835.0,286046999.7,N
1511426835.9,286046999.7,N
1511426855.8,286047002.3,N
1511426875.6,286047001.6,N
1511426895.5,286047000.4,N
1511426915.3,286046999.8,N
1511426935.1,286047000.1,N
1511426955.9,286047001.2,N
1511426975.7,286047000.7,N
1511426995.5,286046999.8,N
1511427015.4,286047002.8,N
1511427035.2,286047000.2,N
1511427055.1,286047002.3,N
1511427056.0,286047002.3,N
1511427075.8,286047002.0,N
1511427095.6,286047001.8,N
1511427115.5,286047002.0,N
1511427135.3,286047000.8,N
1511427155.1,286047000.7,N
1511427175.9,286047000.6,N
1511427195.7,286046999.0,N
1511427215.6,286046999.6,N
1511427235.4,286046997.3,N
1511427255.2,286046999.5,N
1511427275.1,286046996.7,N
1511427276.0,286046996.7,N
1511427295.8,286046998.6,N
1511427315.7,286047000.5,N
1511427335.5,286046999.8,N
1511427355.3,286046999.0,N
1511427375.2,286046999.7,N
1511427395.0,286047000.6,N
1511427395.9,286047000.6,N
1511427415.7,286047000.4,N
1511427435.6,286047002.3,N
1511427455.4,286047002.3,N
1511427475.3,286047002.4,N
1511427495.1,286047002.0,N
1511427515.8,286047002.2,N
1511427535.7,286047001.4,N
1511427555.5,286047001.9,N
1511427575.4,286047002.1,N
1511427595.2,286047000.6,N
